Regional Weather Roundup
Issued by NWS

Home | Current Version | Previous Version | Graphics & Text | Print | Product List | Glossary On
Versions: 1 2 3 4 5 6 7 8 9 10 11 12 13 14 15 16 17 18 19 20 21 22 23 24 25 26 27 28 29 30 31 32 33 34 35 36 37 38 39 40 41 42 43 44 45 46 47 48 49 50
000
ASUS43 KLSX 051407
RWRMO

WEATHER SUMMARY FOR MISSOURI
NATIONAL WEATHER SERVICE SPRINGFIELD MO
900 AM CDT SUN JUL 05 2015

NOTE: "FAIR" INDICATES FEW OR NO CLOUDS BELOW 12,000 FEET WITH NO
       SIGNIFICANT WEATHER AND/OR OBSTRUCTIONS TO VISIBILITY.
       CURRENT SKY AND/OR WEATHER CONDITIONS ARE NOT AVAILABLE FOR
       CHILLICOTHE AND FARMINGTON.

MOZ001>031-035>038-043-044-053-054-051500-
...NORTHERN AND WESTERN MISSOURI...

CITY           SKY/WX    TMP DP  RH WIND       PRES   REMARKS
KANSAS CTY INT PTSUNNY   76  70  82 S9        30.01R
KANSAS C DTWN  SUNNY     78  70  76 S8        30.00R
LEE`S SUMMIT   MOSUNNY   74  69  85 S8        30.02R
ST JOSEPH      PTSUNNY   76  69  79 S9        29.99R
CHILLICOTHE      N/A     74  69  85 S5        30.02S
KIRKSVILLE     SUNNY     74  68  81 S6        30.05R HAZE

$$
MOZ066>068-077>081-088>096-101>105-051500-
...SOUTHWEST MISSOURI...

CITY           SKY/WX    TMP DP  RH WIND       PRES   REMARKS
SPRINGFIELD    CLOUDY    74  70  87 S9        30.06R
JOPLIN         PTSUNNY   76  70  82 S6        30.03S

$$
MOZ032>034-039>042-045>050-055>058-069>072-051500-
...CENTRAL MISSOURI...

CITY           SKY/WX    TMP DP  RH WIND       PRES   REMARKS
COLUMBIA       SUNNY     74  70  87 S6        30.06R
JEFFERSON CITY CLOUDY    73  68  84 S10       30.06R
ROLLA          CLOUDY    71  68  90 S7        30.06S
SEDALIA        SUNNY     77  70  79 S9        30.05R
WHITEMAN AFB   SUNNY     76  72  86 S8        30.02R
WARRENSBURG    SUNNY     75  70  83 S8        30.02R
OSAGE BEACH    CLOUDY    72  68  88 S9        30.06R

$$
MOZ051-052-059>065-051500-
...EAST CENTRAL MISSOURI...

CITY           SKY/WX    TMP DP  RH WIND       PRES   REMARKS
ST LOUIS INTL  SUNNY     77  67  71 S6        30.08S
SPIRIT OF STL  MOSUNNY   74  69  85 S3        30.06R HAZE
ST CHARLES     SUNNY     74  67  78 SE6       30.07R HAZE

$$
MOZ072>076-082>087-097>100-106>115-051500-
...SOUTH CENTRAL AND SOUTHEAST MISSOURI...

CITY           SKY/WX    TMP DP  RH WIND       PRES   REMARKS
CAPE GIRARDEAU PTSUNNY   72  72 100 CALM      30.07F FOG
FARMINGTON     CLOUDY    70  70 100 SE5       30.13R VSB 1
POPLAR BLUFF   FOG       71  70  96 CALM      30.07R VSB 1
WEST PLAINS    CLOUDY    71  68  90 S6        30.10R

$$


USA.gov is the U.S. government's official web portal to all federal, state and local government web resources and services.